Location: Centerville
(32.8776°N, 96.6203°W)
Time: 01:36:26
(UTC+00:00)

Cosmos 1603 - Pass Details

Date: 17 June 2021
Orbit: 832 x 858 km, 71.0° (Epoch: 27 July)

Event Time Altitude Azimuth Distance (km) Brightness Sun altitude
Exits shadow 07:28:14 51° 58° (ENE) 1,061 4.3 -31.9°
Drops below altitude 10° 07:32:39 10° 28° (NNE) 2,469 7.0 -31.6°
Sets 07:35:07 0° 25° (NNE) 3,403 8.0 -31.5°
